| time (UTC) | temp F | wind direction | speed MPH | gust MPH | rain 1hr in | rain 24hr in | rain mn in | humidity % | barometer mb |
| 20260506132337 | 54 | 222 | 0.0 | 2.0 | 0.00 | 0.00 | 0.00 | 89 | 1028.6 |
| 20260506131830 | 54 | 223 | 0.0 | 2.0 | 0.00 | 0.00 | 0.00 | 89 | 1028.5 |
| 20260506131330 | 54 | 229 | 0.0 | 2.0 | 0.00 | 0.00 | 0.00 | 89 | 1028.5 |
| 20260506130830 | 54 | 229 | 0.0 | 2.0 | 0.00 | 0.00 | 0.00 | 89 | 1028.4 |
| 20260506130330 | 54 | 231 | 0.0 | 1.0 | 0.00 | 0.00 | 0.00 | 90 | 1028.4 |
| 20260506125830 | 54 | 231 | 0.0 | 2.0 | 0.00 | 0.00 | 0.00 | 90 | 1028.2 |
| 20260506125331 | 54 | 230 | 0.0 | 2.0 | 0.00 | 0.00 | 0.00 | 90 | 1028.1 |
| 20260506124825 | 54 | 243 | 0.0 | 2.0 | 0.00 | 0.00 | 0.00 | 90 | 1028.2 |
| 20260506124324 | 54 | 243 | 0.0 | 2.0 | 0.00 | 0.00 | 0.00 | 90 | 1028.2 |
| 20260506123824 | 54 | 244 | 0.0 | 1.0 | 0.00 | 0.00 | 0.00 | 90 | 1028.2 |
| 20260506123326 | 54 | 243 | 0.0 | 1.0 | 0.00 | 0.00 | 0.00 | 90 | 1028.3 |
| 20260506122824 | 54 | 242 | 0.0 | 1.0 | 0.00 | 0.00 | 0.00 | 90 | 1028.2 |
| 20260506122325 | 54 | 243 | 0.0 | 1.0 | 0.00 | 0.00 | 0.00 | 90 | 1028.2 |
| 20260506121820 | 54 | 248 | 0.0 | 0.0 | 0.00 | 0.00 | 0.00 | 90 | 1028.2 |
| 20260506121320 | 54 | 248 | 0.0 | 1.0 | 0.00 | 0.00 | 0.00 | 90 | 1028.2 |
| 20260506120820 | 53 | 248 | 0.0 | 1.0 | 0.00 | 0.00 | 0.00 | 91 | 1028.1 |
| 20260506120321 | 53 | 248 | 0.0 | 1.0 | 0.00 | 0.00 | 0.00 | 91 | 1028.2 |
| 20260506115818 | 53 | 285 | 0.0 | 0.0 | 0.00 | 0.00 | 0.00 | 90 | 1028.2 |
| 20260506115318 | 53 | 284 | 0.0 | 0.0 | 0.00 | 0.00 | 0.00 | 90 | 1028.1 |
| 20260506114816 | 53 | 286 | 0.0 | 0.0 | 0.00 | 0.00 | 0.00 | 90 | 1028.1 |
| 20260506114314 | 53 | 285 | 0.0 | 0.0 | 0.00 | 0.00 | 0.00 | 90 | 1027.9 |
| 20260506113812 | 53 | 284 | 0.0 | 0.0 | 0.00 | 0.00 | 0.00 | 90 | 1027.9 |
| 20260506113312 | 53 | 286 | 0.0 | 0.0 | 0.00 | 0.00 | 0.00 | 90 | 1027.8 |
| 20260506112812 | 53 | 285 | 0.0 | 0.0 | 0.00 | 0.00 | 0.00 | 90 | 1027.7 |
| 20260506112313 | 53 | 284 | 0.0 | 0.0 | 0.00 | 0.00 | 0.00 | 90 | 1027.6 |
| 20260506111808 | 53 | 285 | 0.0 | 0.0 | 0.00 | 0.00 | 0.00 | 91 | 1027.6 |
| 20260506111308 | 53 | 285 | 0.0 | 0.0 | 0.00 | 0.00 | 0.00 | 90 | 1027.6 |
| 20260506110806 | 53 | 284 | 0.0 | 1.0 | 0.00 | 0.00 | 0.00 | 91 | 1027.6 |
| 20260506110306 | 53 | 284 | 0.0 | 1.0 | 0.00 | 0.00 | 0.00 | 91 | 1027.5 |
| 20260506105806 | 53 | 285 | 0.0 | 2.0 | 0.00 | 0.00 | 0.00 | 91 | 1027.4 |
| 20260506105306 | 53 | 284 | 0.0 | 2.0 | 0.00 | 0.00 | 0.00 | 91 | 1027.3 |
| 20260506104805 | 53 | 285 | 0.0 | 2.0 | 0.00 | 0.00 | 0.00 | 91 | 1027.2 |
| 20260506104304 | 53 | 284 | 1.0 | 3.0 | 0.00 | 0.00 | 0.00 | 91 | 1027.2 |
| 20260506103803 | 53 | 284 | 1.0 | 3.0 | 0.00 | 0.00 | 0.00 | 91 | 1027.1 |
| 20260506103302 | 53 | 311 | 0.0 | 2.0 | 0.00 | 0.00 | 0.00 | 91 | 1027.1 |
| 20260506102800 | 53 | 294 | 0.0 | 2.0 | 0.00 | 0.00 | 0.00 | 91 | 1027.1 |
| 20260506102300 | 52 | 298 | 0.0 | 2.0 | 0.00 | 0.00 | 0.00 | 91 | 1027.1 |
| 20260506101759 | 52 | 233 | 0.0 | 2.0 | 0.00 | 0.00 | 0.00 | 91 | 1026.9 |
| 20260506101254 | 52 | 232 | 0.0 | 1.0 | 0.00 | 0.00 | 0.00 | 90 | 1026.8 |
| 20260506100754 | 52 | 232 | 0.0 | 1.0 | 0.00 | 0.00 | 0.00 | 90 | 1026.9 |
| 20260506100254 | 53 | 231 | 0.0 | 1.0 | 0.00 | 0.00 | 0.00 | 90 | 1026.8 |
| 20260506095754 | 52 | 231 | 0.0 | 1.0 | 0.00 | 0.00 | 0.00 | 90 | 1026.7 |
| 20260506095254 | 53 | 230 | 0.0 | 0.0 | 0.00 | 0.00 | 0.00 | 90 | 1026.7 |
| 20260506094751 | 53 | 231 | 0.0 | 0.0 | 0.00 | 0.00 | 0.00 | 90 | 1026.6 |
| 20260506094250 | 53 | 230 | 0.0 | 1.0 | 0.00 | 0.00 | 0.00 | 90 | 1026.6 |
| 20260506093748 | 53 | 231 | 0.0 | 1.0 | 0.00 | 0.00 | 0.00 | 90 | 1026.6 |
| 20260506093248 | 53 | 230 | 0.0 | 1.0 | 0.00 | 0.00 | 0.00 | 90 | 1026.6 |
| 20260506092748 | 53 | 231 | 0.0 | 1.0 | 0.00 | 0.00 | 0.00 | 89 | 1026.6 |
| 20260506092247 | 54 | 230 | 0.0 | 1.0 | 0.00 | 0.00 | 0.00 | 89 | 1026.6 |
| 20260506091742 | 54 | 230 | 0.0 | 1.0 | 0.00 | 0.00 | 0.00 | 89 | 1026.4 |
| 20260506091241 | 54 | 230 | 0.0 | 1.0 | 0.00 | 0.00 | 0.00 | 89 | 1026.4 |
| 20260506090738 | 54 | 265 | 0.0 | 1.0 | 0.00 | 0.00 | 0.00 | 88 | 1026.4 |
| 20260506090235 | 55 | 265 | 0.0 | 0.0 | 0.00 | 0.00 | 0.00 | 88 | 1026.3 |
| 20260506085737 | 55 | 265 | 0.0 | 1.0 | 0.00 | 0.00 | 0.00 | 88 | 1026.3 |
| 20260506085231 | 55 | 265 | 0.0 | 1.0 | 0.00 | 0.00 | 0.00 | 88 | 1026.3 |
| 20260506084730 | 55 | 265 | 0.0 | 2.0 | 0.00 | 0.00 | 0.00 | 88 | 1026.3 |
| 20260506084229 | 56 | 265 | 0.0 | 2.0 | 0.00 | 0.00 | 0.00 | 87 | 1026.4 |
| 20260506083731 | 56 | 273 | 0.0 | 2.0 | 0.00 | 0.00 | 0.00 | 87 | 1026.3 |
| 20260506083230 | 56 | 274 | 0.0 | 2.0 | 0.00 | 0.00 | 0.00 | 87 | 1026.3 |
| 20260506082731 | 57 | 274 | 0.0 | 2.0 | 0.00 | 0.00 | 0.00 | 87 | 1026.4 |
| 20260506082227 | 57 | 274 | 0.0 | 2.0 | 0.00 | 0.00 | 0.00 | 86 | 1026.3 |
| 20260506081726 | 57 | 274 | 0.0 | 1.0 | 0.00 | 0.00 | 0.00 | 86 | 1026.3 |
| 20260506081223 | 58 | 275 | 0.0 | 2.0 | 0.00 | 0.00 | 0.00 | 86 | 1026.2 |
| 20260506080724 | 58 | 275 | 0.0 | 2.0 | 0.00 | 0.00 | 0.00 | 86 | 1026.2 |
| 20260506080223 | 58 | 275 | 0.0 | 2.0 | 0.00 | 0.00 | 0.00 | 86 | 1026.2 |
| 20260506073217 | 58 | 277 | 0.0 | 2.0 | 0.00 | 0.00 | 0.00 | 85 | 1026.0 |
| 20260506072719 | 58 | 279 | 0.0 | 2.0 | 0.00 | 0.00 | 0.00 | 85 | 1026.1 |
| 20260506072216 | 58 | 278 | 1.0 | 3.0 | 0.00 | 0.00 | 0.00 | 85 | 1026.0 |
| 20260506071715 | 59 | 279 | 1.0 | 4.0 | 0.00 | 0.00 | 0.00 | 85 | 1026.0 |
| 20260506071215 | 59 | 276 | 1.0 | 4.0 | 0.00 | 0.00 | 0.00 | 85 | 1026.0 |
| 20260506070717 | 59 | 316 | 1.0 | 3.0 | 0.00 | 0.00 | 0.00 | 85 | 1025.9 |
| 20260506070215 | 59 | 303 | 1.0 | 3.0 | 0.00 | 0.00 | 0.00 | 85 | 1026.0 |
| 20260506062204 | 59 | 296 | 1.0 | 2.0 | 0.00 | 0.00 | 0.00 | 84 | 1025.7 |
| 20260506061703 | 59 | 300 | 1.0 | 2.0 | 0.00 | 0.00 | 0.00 | 84 | 1025.6 |
| 20260506061204 | 59 | 297 | 1.0 | 2.0 | 0.00 | 0.00 | 0.00 | 84 | 1025.5 |
| 20260506060703 | 59 | 323 | 0.0 | 3.0 | 0.00 | 0.00 | 0.00 | 84 | 1025.6 |
| 20260506060203 | 59 | 269 | 1.0 | 3.0 | 0.00 | 0.00 | 0.00 | 84 | 1025.6 |
| 20260506051155 | 60 | 305 | 1.0 | 4.0 | 0.00 | 0.00 | 0.00 | 82 | 1025.4 |
| 20260506050653 | 60 | 317 | 2.0 | 5.0 | 0.00 | 0.00 | 0.00 | 82 | 1025.4 |
| 20260506050152 | 61 | 347 | 2.0 | 5.0 | 0.00 | 0.00 | 0.00 | 81 | 1025.3 |
| 20260506044648 | 62 | 320 | 2.0 | 7.0 | 0.00 | 0.00 | 0.00 | 80 | 1025.3 |
| 20260506044145 | 63 | 277 | 1.0 | 7.0 | 0.00 | 0.00 | 0.00 | 80 | 1025.1 |
| 20260506043645 | 63 | 96 | 0.0 | 1.0 | 0.00 | 0.00 | 0.00 | 80 | 1024.9 |
| 20260506043146 | 63 | 96 | 0.0 | 1.0 | 0.00 | 0.00 | 0.00 | 80 | 1024.9 |
| 20260506042645 | 63 | 97 | 0.0 | 0.0 | 0.00 | 0.00 | 0.00 | 80 | 1024.8 |
| 20260506042145 | 63 | 96 | 0.0 | 2.0 | 0.00 | 0.00 | 0.00 | 80 | 1024.8 |
| 20260506041642 | 63 | 97 | 0.0 | 2.0 | 0.00 | 0.00 | 0.00 | 80 | 1024.7 |
| 20260506041142 | 63 | 97 | 0.0 | 1.0 | 0.00 | 0.00 | 0.00 | 80 | 1024.7 |
| 20260506040641 | 63 | 97 | 0.0 | 2.0 | 0.00 | 0.00 | 0.00 | 80 | 1024.6 |
| 20260506040142 | 63 | 98 | 1.0 | 2.0 | 0.00 | 0.00 | 0.00 | 79 | 1024.5 |
| 20260506035643 | 63 | 97 | 0.0 | 2.0 | 0.00 | 0.00 | 0.00 | 79 | 1024.4 |
| 20260506035137 | 63 | 95 | 0.0 | 2.0 | 0.00 | 0.00 | 0.00 | 79 | 1024.4 |
| 20260506034638 | 63 | 95 | 0.0 | 3.0 | 0.00 | 0.00 | 0.00 | 79 | 1024.2 |
| 20260506034138 | 63 | 95 | 1.0 | 3.0 | 0.00 | 0.00 | 0.00 | 79 | 1024.2 |
| 20260506033638 | 63 | 107 | 1.0 | 3.0 | 0.00 | 0.00 | 0.00 | 79 | 1024.1 |
| 20260506033137 | 64 | 105 | 1.0 | 3.0 | 0.00 | 0.00 | 0.00 | 79 | 1024.1 |
| 20260506032639 | 64 | 90 | 1.0 | 3.0 | 0.00 | 0.00 | 0.00 | 78 | 1024.1 |
| 20260506032133 | 64 | 128 | 1.0 | 3.0 | 0.00 | 0.00 | 0.00 | 78 | 1024.2 |
| 20260506031635 | 64 | 128 | 1.0 | 3.0 | 0.00 | 0.00 | 0.00 | 77 | 1024.1 |
| 20260506031133 | 64 | 128 | 1.0 | 4.0 | 0.00 | 0.00 | 0.00 | 77 | 1024.0 |
| 20260506030634 | 64 | 86 | 1.0 | 4.0 | 0.00 | 0.00 | 0.00 | 77 | 1023.9 |
| 20260506030133 | 64 | 96 | 1.0 | 4.0 | 0.00 | 0.00 | 0.00 | 77 | 1023.8 |
| 20260506025635 | 64 | 108 | 2.0 | 4.0 | 0.00 | 0.00 | 0.00 | 77 | 1023.8 |
| 20260506025130 | 65 | 96 | 2.0 | 5.0 | 0.00 | 0.00 | 0.00 | 76 | 1023.7 |
| 20260506024629 | 65 | 99 | 3.0 | 6.0 | 0.00 | 0.00 | 0.00 | 76 | 1023.8 |
| 20260506024130 | 65 | 93 | 2.0 | 6.0 | 0.00 | 0.00 | 0.00 | 76 | 1023.6 |
| 20260506023630 | 65 | 99 | 2.0 | 5.0 | 0.00 | 0.00 | 0.00 | 76 | 1023.7 |
| 20260506023129 | 65 | 69 | 2.0 | 5.0 | 0.00 | 0.00 | 0.00 | 76 | 1023.8 |
| 20260506022630 | 65 | 92 | 1.0 | 4.0 | 0.00 | 0.00 | 0.00 | 75 | 1023.7 |
| 20260506022125 | 66 | 69 | 1.0 | 4.0 | 0.00 | 0.00 | 0.00 | 75 | 1023.7 |
| 20260506021626 | 66 | 63 | 2.0 | 5.0 | 0.00 | 0.00 | 0.00 | 75 | 1023.7 |
| 20260506021125 | 66 | 57 | 3.0 | 6.0 | 0.00 | 0.00 | 0.00 | 74 | 1023.8 |
| 20260506020626 | 66 | 48 | 2.0 | 5.0 | 0.00 | 0.00 | 0.00 | 74 | 1023.8 |
| 20260506020123 | 67 | 87 | 1.0 | 4.0 | 0.00 | 0.00 | 0.00 | 73 | 1023.8 |
| 20260506015624 | 67 | 92 | 2.0 | 7.0 | 0.00 | 0.00 | 0.00 | 73 | 1023.8 |
| 20260506015125 | 67 | 61 | 2.0 | 8.0 | 0.00 | 0.00 | 0.00 | 72 | 1023.8 |
| 20260506014621 | 68 | 68 | 1.0 | 8.0 | 0.00 | 0.00 | 0.00 | 72 | 1023.9 |
| 20260506014120 | 68 | 77 | 1.0 | 4.0 | 0.00 | 0.00 | 0.00 | 71 | 1023.8 |
| 20260506013620 | 69 | 72 | 2.0 | 7.0 | 0.00 | 0.00 | 0.00 | 70 | 1023.7 |
| 20260506013115 | 69 | 46 | 3.0 | 7.0 | 0.00 | 0.00 | 0.00 | 69 | 1023.8 |
| 20260506012613 | 70 | 78 | 3.0 | 7.0 | 0.00 | 0.00 | 0.00 | 69 | 1023.8 |
| 20260506012113 | 70 | 136 | 2.0 | 7.0 | 0.00 | 0.00 | 0.00 | 69 | 1023.8 |
| 20260506011615 | 70 | 85 | 3.0 | 7.0 | 0.00 | 0.00 | 0.00 | 70 | 1023.7 |
| 20260506011113 | 69 | 70 | 3.0 | 8.0 | 0.00 | 0.00 | 0.00 | 70 | 1023.7 |
| 20260506010613 | 69 | 84 | 3.0 | 8.0 | 0.00 | 0.00 | 0.00 | 70 | 1023.7 |
| 20260506010108 | 70 | 72 | 2.0 | 6.0 | 0.00 | 0.00 | 0.00 | 68 | 1023.7 |
| 20260506005608 | 70 | 76 | 2.0 | 5.0 | 0.00 | 0.00 | 0.00 | 68 | 1023.7 |
| 20260506005107 | 70 | 46 | 2.0 | 7.0 | 0.00 | 0.00 | 0.00 | 69 | 1023.8 |
| 20260506004607 | 70 | 81 | 3.0 | 8.0 | 0.00 | 0.00 | 0.00 | 69 | 1023.8 |
| 20260506004107 | 70 | 82 | 3.0 | 8.0 | 0.00 | 0.00 | 0.00 | 69 | 1023.8 |
| 20260506003607 | 70 | 24 | 2.0 | 8.0 | 0.00 | 0.00 | 0.00 | 67 | 1023.7 |
| 20260506003103 | 70 | 48 | 2.0 | 4.0 | 0.00 | 0.00 | 0.00 | 68 | 1023.9 |
| 20260506002603 | 70 | 23 | 2.0 | 6.0 | 0.00 | 0.00 | 0.00 | 67 | 1023.7 |
| 20260506002102 | 70 | 50 | 2.0 | 8.0 | 0.00 | 0.00 | 0.00 | 69 | 1023.8 |
| 20260506001602 | 70 | 95 | 3.0 | 9.0 | 0.00 | 0.00 | 0.00 | 70 | 1023.8 |
| 20260506001101 | 69 | 49 | 2.0 | 9.0 | 0.00 | 0.00 | 0.00 | 70 | 1023.8 |
| 20260506000600 | 69 | 76 | 2.0 | 4.0 | 0.00 | 0.00 | 0.00 | 71 | 1023.8 |
| 20260506000059 | 68 | 342 | 1.0 | 3.0 | 0.00 | 0.00 | 0.00 | 70 | 1023.8 |
| 20260505235602 | 67 | 84 | 0.0 | 4.0 | 0.00 | 0.00 | 0.00 | 72 | 1023.9 |
| 20260505235058 | 67 | 33 | 1.0 | 4.0 | 0.00 | 0.00 | 0.00 | 72 | 1024.0 |
| 20260505234557 | 67 | 5 | 2.0 | 4.0 | 0.00 | 0.00 | 0.00 | 71 | 1024.0 |
| 20260505234055 | 68 | 22 | 2.0 | 6.0 | 0.00 | 0.00 | 0.00 | 71 | 1024.0 |
| 20260505233556 | 68 | 296 | 2.0 | 6.0 | 0.00 | 0.00 | 0.00 | 70 | 1024.1 |
| 20260505233053 | 68 | 71 | 2.0 | 8.0 | 0.00 | 0.00 | 0.00 | 72 | 1024.2 |
| 20260505232553 | 68 | 65 | 2.0 | 8.0 | 0.00 | 0.00 | 0.00 | 71 | 1024.1 |
| 20260505232054 | 68 | 101 | 2.0 | 8.0 | 0.00 | 0.00 | 0.00 | 72 | 1024.2 |
| 20260505231551 | 68 | 90 | 1.0 | 8.0 | 0.00 | 0.00 | 0.00 | 71 | 1024.2 |
| 20260505231049 | 68 | 134 | 2.0 | 8.0 | 0.00 | 0.00 | 0.00 | 71 | 1024.3 |
| 20260505230549 | 68 | 78 | 2.0 | 8.0 | 0.00 | 0.00 | 0.00 | 72 | 1024.4 |
| 20260505230044 | 68 | 49 | 2.0 | 6.0 | 0.00 | 0.00 | 0.00 | 75 | 1024.4 |
| 20260505225543 | 67 | 355 | 2.0 | 8.0 | 0.00 | 0.00 | 0.00 | 75 | 1024.3 |
| 20260505225043 | 66 | 67 | 2.0 | 8.0 | 0.00 | 0.00 | 0.00 | 77 | 1024.5 |
| 20260505224543 | 65 | 59 | 2.0 | 7.0 | 0.00 | 0.00 | 0.00 | 76 | 1024.5 |
| 20260505224043 | 65 | 90 | 2.0 | 7.0 | 0.00 | 0.00 | 0.00 | 76 | 1024.6 |
| 20260505223544 | 65 | 342 | 1.0 | 6.0 | 0.00 | 0.00 | 0.00 | 75 | 1024.6 |
| 20260505223039 | 65 | 24 | 3.0 | 9.0 | 0.00 | 0.00 | 0.00 | 76 | 1024.6 |
| 20260505222541 | 65 | 298 | 3.0 | 9.0 | 0.00 | 0.00 | 0.00 | 76 | 1024.7 |
| 20260505222037 | 65 | 121 | 1.0 | 4.0 | 0.00 | 0.00 | 0.00 | 78 | 1024.6 |
| 20260505221538 | 64 | 46 | 0.0 | 4.0 | 0.00 | 0.00 | 0.00 | 77 | 1024.7 |
| 20260505221037 | 64 | 166 | 0.0 | 3.0 | 0.00 | 0.00 | 0.00 | 78 | 1024.8 |
| 20260505220539 | 64 | 266 | 1.0 | 4.0 | 0.00 | 0.00 | 0.00 | 77 | 1024.8 |
| 20260505220031 | 64 | 269 | 2.0 | 4.0 | 0.00 | 0.00 | 0.00 | 78 | 1024.8 |
| 20260505215530 | 64 | 230 | 2.0 | 4.0 | 0.00 | 0.00 | 0.00 | 77 | 1024.8 |
| 20260505215031 | 64 | 302 | 1.0 | 4.0 | 0.00 | 0.00 | 0.00 | 77 | 1024.8 |
| 20260505214532 | 64 | 306 | 1.0 | 4.0 | 0.00 | 0.00 | 0.00 | 76 | 1024.8 |
| 20260505214031 | 64 | 254 | 2.0 | 10.0 | 0.00 | 0.00 | 0.00 | 76 | 1024.8 |
| 20260505213532 | 64 | 321 | 1.0 | 10.0 | 0.00 | 0.00 | 0.00 | 77 | 1024.9 |
| 20260505213029 | 64 | 77 | 1.0 | 4.0 | 0.00 | 0.00 | 0.00 | 77 | 1024.9 |
| 20260505212526 | 63 | 19 | 1.0 | 4.0 | 0.00 | 0.00 | 0.00 | 77 | 1024.9 |
| 20260505212028 | 63 | 326 | 1.0 | 4.0 | 0.00 | 0.00 | 0.00 | 77 | 1024.9 |
| 20260505211527 | 63 | 296 | 1.0 | 4.0 | 0.00 | 0.00 | 0.00 | 77 | 1024.8 |
| 20260505211025 | 63 | 300 | 1.0 | 4.0 | 0.00 | 0.00 | 0.00 | 77 | 1024.9 |
| 20260505210526 | 63 | 279 | 2.0 | 5.0 | 0.00 | 0.00 | 0.00 | 77 | 1024.9 |
| 20260505210020 | 63 | 264 | 1.0 | 5.0 | 0.00 | 0.00 | 0.00 | 77 | 1025.0 |
| 20260505205521 | 63 | 325 | 1.0 | 5.0 | 0.00 | 0.00 | 0.00 | 78 | 1025.0 |
| 20260505205021 | 63 | 294 | 1.0 | 3.0 | 0.00 | 0.00 | 0.00 | 77 | 1024.9 |
| 20260505204522 | 63 | 267 | 2.0 | 3.0 | 0.00 | 0.00 | 0.00 | 77 | 1025.0 |
| 20260505204019 | 63 | 271 | 2.0 | 4.0 | 0.00 | 0.00 | 0.00 | 77 | 1025.1 |
| 20260505203520 | 62 | 298 | 1.0 | 4.0 | 0.00 | 0.00 | 0.00 | 78 | 1025.1 |
| 20260505203016 | 62 | 337 | 0.0 | 5.0 | 0.00 | 0.00 | 0.00 | 78 | 1025.0 |
| 20260505202515 | 62 | 254 | 0.0 | 5.0 | 0.00 | 0.00 | 0.00 | 78 | 1025.0 |
| 20260505202012 | 62 | 253 | 1.0 | 6.0 | 0.00 | 0.00 | 0.00 | 78 | 1025.0 |
| 20260505201513 | 62 | 254 | 1.0 | 6.0 | 0.00 | 0.00 | 0.00 | 78 | 1025.2 |
| 20260505201013 | 62 | 308 | 1.0 | 5.0 | 0.00 | 0.00 | 0.00 | 78 | 1025.1 |
| 20260505200514 | 62 | 0 | 1.0 | 6.0 | 0.00 | 0.00 | 0.00 | 79 | 1025.1 |
| 20260505200007 | 62 | 265 | 0.0 | 4.0 | 0.00 | 0.00 | 0.00 | 78 | 1025.0 |
| 20260505195511 | 62 | 244 | 1.0 | 3.0 | 0.00 | 0.00 | 0.00 | 79 | 1025.0 |
| 20260505195003 | 61 | 252 | 1.0 | 3.0 | 0.00 | 0.00 | 0.00 | 79 | 1025.1 |
| 20260505194501 | 61 | 257 | 1.0 | 4.0 | 0.00 | 0.00 | 0.00 | 80 | 1025.1 |
| 20260505194001 | 61 | 265 | 1.0 | 4.0 | 0.00 | 0.00 | 0.00 | 79 | 1025.2 |
| 20260505193456 | 61 | 257 | 1.0 | 3.0 | 0.00 | 0.00 | 0.00 | 80 | 1025.2 |
| 20260505192956 | 61 | 257 | 2.0 | 4.0 | 0.00 | 0.00 | 0.00 | 79 | 1025.3 |
| 20260505192454 | 61 | 257 | 2.0 | 4.0 | 0.00 | 0.00 | 0.00 | 80 | 1025.2 |
| 20260505191955 | 61 | 270 | 2.0 | 4.0 | 0.00 | 0.00 | 0.00 | 80 | 1025.3 |
| 20260505191455 | 61 | 261 | 1.0 | 4.0 | 0.00 | 0.00 | 0.00 | 80 | 1025.2 |
| 20260505190955 | 61 | 234 | 1.0 | 4.0 | 0.00 | 0.00 | 0.00 | 79 | 1025.1 |
| 20260505190448 | 61 | 230 | 2.0 | 5.0 | 0.00 | 0.00 | 0.00 | 79 | 1025.1 |
| 20260505185949 | 61 | 218 | 2.0 | 6.0 | 0.00 | 0.00 | 0.00 | 80 | 1025.2 |
| 20260505185447 | 61 | 112 | 1.0 | 6.0 | 0.00 | 0.00 | 0.00 | 80 | 1025.2 |
| 20260505184948 | 61 | 258 | 1.0 | 3.0 | 0.00 | 0.00 | 0.00 | 80 | 1025.1 |
| 20260505184447 | 60 | 257 | 1.0 | 4.0 | 0.00 | 0.00 | 0.00 | 80 | 1025.1 |
| 20260505183948 | 60 | 263 | 2.0 | 4.0 | 0.00 | 0.00 | 0.00 | 81 | 1025.2 |
| 20260505183446 | 60 | 259 | 2.0 | 4.0 | 0.00 | 0.00 | 0.00 | 81 | 1025.1 |
| 20260505182945 | 60 | 273 | 2.0 | 4.0 | 0.00 | 0.00 | 0.00 | 81 | 1025.2 |
| 20260505182445 | 60 | 277 | 1.0 | 4.0 | 0.00 | 0.00 | 0.00 | 81 | 1025.2 |
| 20260505181945 | 60 | 287 | 2.0 | 6.0 | 0.00 | 0.00 | 0.00 | 81 | 1025.3 |
| 20260505181445 | 60 | 254 | 2.0 | 6.0 | 0.00 | 0.00 | 0.00 | 81 | 1025.2 |
| 20260505180940 | 60 | 279 | 1.0 | 3.0 | 0.00 | 0.00 | 0.00 | 81 | 1025.1 |
| 20260505180437 | 59 | 282 | 2.0 | 4.0 | 0.00 | 0.00 | 0.00 | 81 | 1025.1 |
| 20260505175938 | 60 | 282 | 2.0 | 4.0 | 0.00 | 0.00 | 0.00 | 81 | 1025.1 |
| 20260505175437 | 60 | 10 | 1.0 | 3.0 | 0.00 | 0.00 | 0.00 | 81 | 1025.1 |
| 20260505174937 | 60 | 42 | 1.0 | 3.0 | 0.00 | 0.00 | 0.00 | 80 | 1025.1 |
| 20260505174436 | 60 | 0 | 1.0 | 3.0 | 0.00 | 0.00 | 0.00 | 81 | 1025.0 |
| 20260505173938 | 60 | 315 | 1.0 | 3.0 | 0.00 | 0.00 | 0.00 | 81 | 1025.0 |
| 20260505173432 | 59 | 127 | 1.0 | 3.0 | 0.00 | 0.00 | 0.00 | 81 | 1025.0 |
| 20260505172934 | 59 | 126 | 1.0 | 3.0 | 0.00 | 0.00 | 0.00 | 82 | 1025.0 |
| 20260505172432 | 59 | 119 | 0.0 | 2.0 | 0.00 | 0.00 | 0.00 | 82 | 1025.0 |
| 20260505171932 | 59 | 232 | 1.0 | 4.0 | 0.00 | 0.00 | 0.00 | 82 | 1024.9 |
| 20260505171433 | 59 | 232 | 1.0 | 5.0 | 0.00 | 0.00 | 0.00 | 82 | 1025.0 |
| 20260505170933 | 59 | 161 | 1.0 | 5.0 | 0.00 | 0.00 | 0.00 | 83 | 1025.0 |
| 20260505170429 | 59 | 288 | 1.0 | 4.0 | 0.00 | 0.00 | 0.00 | 82 | 1024.9 |
| 20260505165928 | 58 | 131 | 1.0 | 4.0 | 0.00 | 0.00 | 0.00 | 83 | 1025.0 |
| 20260505165430 | 58 | 74 | 1.0 | 3.0 | 0.00 | 0.00 | 0.00 | 83 | 1024.9 |
| 20260505164929 | 58 | 211 | 1.0 | 3.0 | 0.00 | 0.00 | 0.00 | 84 | 1024.9 |
| 20260505164428 | 58 | 264 | 0.0 | 2.0 | 0.00 | 0.00 | 0.00 | 84 | 1024.9 |
| 20260505163929 | 58 | 264 | 0.0 | 2.0 | 0.00 | 0.00 | 0.00 | 84 | 1024.8 |
| 20260505163425 | 57 | 265 | 0.0 | 2.0 | 0.00 | 0.00 | 0.00 | 85 | 1024.9 |
| 20260505162925 | 57 | 265 | 0.0 | 2.0 | 0.00 | 0.00 | 0.00 | 85 | 1024.8 |
| 20260505162425 | 57 | 265 | 1.0 | 4.0 | 0.00 | 0.00 | 0.00 | 86 | 1024.8 |
| 20260505161924 | 56 | 265 | 1.0 | 4.0 | 0.00 | 0.00 | 0.00 | 86 | 1024.9 |
| 20260505161424 | 56 | 267 | 1.0 | 3.0 | 0.00 | 0.00 | 0.00 | 86 | 1024.8 |
| 20260505160924 | 56 | 279 | 1.0 | 4.0 | 0.00 | 0.00 | 0.00 | 86 | 1024.9 |
| 20260505160425 | 56 | 279 | 1.0 | 4.0 | 0.00 | 0.00 | 0.00 | 86 | 1024.9 |
| 20260505152919 | 55 | 277 | 1.0 | 3.0 | 0.00 | 0.00 | 0.00 | 88 | 1024.8 |
| 20260505152418 | 55 | 277 | 1.0 | 4.0 | 0.00 | 0.00 | 0.00 | 87 | 1024.7 |
| 20260505151920 | 55 | 279 | 1.0 | 4.0 | 0.00 | 0.00 | 0.00 | 88 | 1024.8 |
| 20260505151414 | 55 | 309 | 1.0 | 3.0 | 0.00 | 0.00 | 0.00 | 88 | 1024.8 |
| 20260505150912 | 55 | 237 | 0.0 | 2.0 | 0.00 | 0.00 | 0.00 | 88 | 1024.7 |
| 20260505150412 | 55 | 219 | 1.0 | 2.0 | 0.00 | 0.00 | 0.00 | 88 | 1024.7 |
| 20260505140356 | 54 | 223 | 0.0 | 2.0 | 0.00 | 0.00 | 0.00 | 89 | 1024.2 |